Weather History for Birmingham, AL

Change the Weather History Date:

Tuesday, November 19, 2013

  Actual Average Record
Temperature  
Mean Temperature 48 °F 53 °F  
Max Temperature 59 °F 64 °F 80 °F (1942)
Min Temperature 36 °F 42 °F 18 °F (1903)
Degree Days  
Heating Degree Days 17 12  
Month to date heating degree days 205 179  
Since 1 July heating degree days 302 306  
Moisture  
Dew Point 27 °F    
Average Humidity 50    
Maximum Humidity 76    
Minimum Humidity 23    
Precipitation  
Precipitation 0.00 in 0.17 in 2.37 in (1900)
Month to date precipitation 1.04 2.87  
Year to date precipitation 57.73 47.29  
Snow  
Snow 0.00 in 0.00 in - ()
Month to date snowfall 0.0 0.0  
Since 1 July snowfall 0.0 0.0  
Since 1 September snowfall 0.0 0.0  
Snow Depth 0.00 in    
Sea Level Pressure  
Sea Level Pressure 30.16 in    
Wind  
Wind Speed 6 mph (North)    
Max Wind Speed 16 mph    
Max Gust Speed 23 mph    
Visibility 10 miles    
Events      
T = Trace of Precipitation, MM = Missing Value Source: NWS Daily Summary

Daily Weather History Graph

Daily Weather History Graph

Search for Another Location

Airport:

Trip Planner

Search our weather history database for the weather conditions in past years. The results will help you decide how hot, cold, wet, or windy it might be!

Date:

Astronomy

Nov. 19, 2013 Rise Set
Actual Time 6:22 AM CST 4:42 PM CST
Civil Twilight 5:55 AM CST 5:08 PM CST
Nautical Twilight 5:25 AM CST 5:38 PM CST
Astronomical Twilight 4:56 AM CST 6:08 PM CST
Moon 6:33 PM CST (11/19) 8:00 AM CST (11/19)
Length of Visible Light 11h 12m
Length of Day
10h 19m
Waning Gibbous, 96% of the Moon is Illuminated
Nov 19
Waning Gibbous
Nov 25
Last Quarter
Dec 2
New
Dec 9
First Quarter
Dec 17
Full

Hourly Weather History & Observations

Time (CST) Temp. Windchill Dew Point Humidity Pressure Visibility Wind Dir Wind Speed Gust Speed Precip Events Conditions
12:53 AM 43.0 °F 40.3 °F 34.0 °F 71% 30.15 in 10.0 mi North 4.6 mph - N/A   Scattered Clouds
1:53 AM 43.0 °F 38.8 °F 32.0 °F 65% 30.16 in 10.0 mi North 6.9 mph - N/A   Scattered Clouds
2:53 AM 44.6 °F 41.4 °F 30.2 °F 57% 30.16 in 10.0 mi North 5.8 mph - N/A   Partly Cloudy
3:53 AM 43.0 °F 39.5 °F 28.9 °F 58% 30.15 in 10.0 mi NNE 5.8 mph - N/A   Partly Cloudy
4:53 AM 36.0 °F 31.1 °F 28.9 °F 76% 30.17 in 10.0 mi North 5.8 mph - N/A   Partly Cloudy
5:53 AM 37.0 °F 34.5 °F 28.9 °F 73% 30.18 in 10.0 mi North 3.5 mph - N/A   Partly Cloudy
6:53 AM 37.9 °F - 30.0 °F 73% 30.21 in 10.0 mi Calm Calm - N/A   Scattered Clouds
7:53 AM 42.1 °F 37.7 °F 28.9 °F 60% 30.21 in 10.0 mi NNE 6.9 mph - N/A   Scattered Clouds
8:53 AM 48.0 °F - 26.1 °F 42% 30.22 in 10.0 mi North 11.5 mph 18.4 mph N/A   Mostly Cloudy
9:53 AM 50.0 °F - 21.0 °F 32% 30.20 in 10.0 mi NNE 11.5 mph - N/A   Scattered Clouds
10:53 AM 55.0 °F - 21.0 °F 27% 30.19 in 10.0 mi NNW 6.9 mph - N/A   Scattered Clouds
11:53 AM 55.9 °F - 19.0 °F 24% 30.15 in 10.0 mi NNE 9.2 mph 20.7 mph N/A   Mostly Cloudy
12:53 PM 57.0 °F - 19.9 °F 24% 30.14 in 10.0 mi North 8.1 mph - N/A   Mostly Cloudy
1:53 PM 55.9 °F - 21.9 °F 27% 30.12 in 10.0 mi North 13.8 mph 17.3 mph N/A   Mostly Cloudy
2:53 PM 57.0 °F - 23.0 °F 27% 30.12 in 10.0 mi North 11.5 mph - N/A   Mostly Cloudy
3:53 PM 54.0 °F - 24.1 °F 31% 30.14 in 10.0 mi North 11.5 mph - N/A   Scattered Clouds
4:53 PM 52.0 °F - 25.0 °F 35% 30.13 in 10.0 mi NNE 6.9 mph - N/A   Mostly Cloudy
5:53 PM 50.0 °F - 27.0 °F 41% 30.16 in 10.0 mi NNW 4.6 mph - N/A   Mostly Cloudy
6:53 PM 48.9 °F - 28.0 °F 44% 30.15 in 10.0 mi NNE 4.6 mph - N/A   Scattered Clouds
7:53 PM 46.9 °F - 28.0 °F 48% 30.17 in 10.0 mi Calm Calm - N/A   Partly Cloudy
8:53 PM 42.1 °F - 30.9 °F 65% 30.16 in 10.0 mi Calm Calm - N/A   Clear
9:53 PM 39.9 °F - 30.0 °F 68% 30.16 in 10.0 mi Calm Calm - N/A   Clear
10:53 PM 42.1 °F - 30.0 °F 62% 30.15 in 10.0 mi Calm Calm - N/A   Clear
11:53 PM 43.0 °F 41.3 °F 28.0 °F 56% 30.15 in 10.0 mi NNE 3.5 mph - N/A   Clear